Terminal Aerodrome Forecast
Issued by NWS

Home | Current Version | Previous Version | Text Only | Print | Product List | Glossary On
Versions: 1 2 3 4 5 6 7 8 9 10 11 12 13 14 15 16 17 18 19 20 21 22 23 24 25 26 27 28 29 30
000
FTPA31 PHFO 171300 AAA
TAFLNY
TAF AMD
PHNY 171305Z 1713/1812 06008KT P6SM SCT030
     FM171900 26008KT P6SM SCT025 BKN035
     FM172300 04015KT P6SM SCT025 BKN035
     FM180800 04008KT P6SM SCT030
      AMD NOT SKED=

USA.gov is the U.S. government's official web portal to all federal, state and local government web resources and services.